Location: Bretagne
(43.8474°N, 0.4650°W)
Time: 08:31:55
(UTC+00:00)

Meteor 1-21 - Pass Details

Date: 15 January 2026
Orbit: 845 x 885 km, 81.2° (Epoch: 17 February)

Event Time Altitude Azimuth Distance (km) Brightness Sun altitude
Rises 17:27:27 0° 171° (S) 3,403 7.5 -6.9°
Reaches altitude 10° 17:29:56 10° 166° (SSE) 2,467 6.7 -7.3°
Maximum altitude 17:35:16 47° 94° (E) 1,106 4.5 -8.2°
Drops below altitude 10° 17:40:36 10° 21° (NNE) 2,475 6.2 -9.1°
Sets 17:43:06 0° 16° (NNE) 3,415 7.0 -9.5°
